Simultaneous Nadir Overpasses (SNOs) Predictions

Prediction of SNOs between GOES-17 and NOAA-19 Satellite Orbit:

Table of predicted SNOs for the next 14.0 days since TLE Epoch: 5/28/2022
Index Date Time (GOES-17) GOES-17 Lat,Lon NOAA-19 Lat,Lon Distance(km) Time Diff (sec)
1 05/28/2022 16:39:49 0.05,-137.19 -0.76,-133.54 416.59 80
2 05/30/2022 05:12:16 -0.05,-137.18 -0.99,-141.31 471.43 80
3 05/31/2022 05:00:26 -0.04,-137.17 -0.34,-138.42 142.83 80
4 06/01/2022 04:45:56 -0.04,-137.17 0.36,-135.54 185.64 80
5 06/03/2022 17:06:32 0.03,-137.14 0.79,-140.42 374.96 80
6 06/04/2022 16:54:42 0.03,-137.12 0.13,-137.53 46.84 80
7 06/05/2022 16:45:31 0.02,-137.11 -0.53,-134.64 281.26 80
8 06/08/2022 05:03:28 -0.02,-137.07 -0.62,-139.52 281.04 80
9 06/09/2022 04:54:19 -0.02,-137.05 0.10,-136.65 46.68 80
10 06/10/2022 04:42:28 -0.02,-137.03 0.76,-133.76 374.04 80
